Simultaneous Nadir Overpasses (SNOs) Predictions

Prediction of SNOs between GOES-16 and METOP-B Satellite Orbit:

Table of predicted SNOs for the next 14.0 days since TLE Epoch: 9/7/2019
Index Date Time (GOES-16) GOES-16 Lat,Lon METOP-B Lat,Lon Distance(km) Time Diff (sec)
1 09/08/2019 02:12:01 0.00, -75.19 0.89, -71.08 467.53 80
2 09/09/2019 14:30:52 -0.00, -75.21 0.11, -75.64 50.30 80
3 09/12/2019 02:31:53 0.00, -75.21 -0.02, -75.25 4.36 80
4 09/14/2019 14:30:05 0.00, -75.25 -0.10, -74.82 49.59 80
5 09/16/2019 02:49:05 -0.00, -75.26 -0.93, -79.41 472.87 80
6 09/17/2019 02:25:46 -0.00, -75.28 0.19, -74.42 97.91 80
7 09/18/2019 14:44:37 0.00, -75.31 0.81, -78.98 418.10 80
8 09/19/2019 14:26:37 0.00, -75.33 -0.31, -73.99 152.88 80




NCC Satellite Simultaneous Nadir Overpasses (SNOs) Prediction Service
